Location: Albany
(35.0000°S, 118.0000°E)
Time: 16:40:23
(UTC-04:00)

Daily predictions for brighter satellites

Satellite Brightness Start Highest point End
(mag) Time Altitude Azimuth Time Altitude Azimuth Time Altitude Azimuth
Cosmos 2322 Rocket 4.2 16:13:37 21° SE 16:14:47 22° ESE 16:19:06 10° ENE
NOSS 3-1 (A) 4.1 16:25:03 47° ESE 16:25:03 47° ESE 16:30:09 10° NE
CZ-2C R/B 4.1 16:31:06 10° NE 16:35:39 32° ESE 16:38:19 20° SSE
Cosmos 2184 Rocket 4.5 16:35:21 30° SSE 16:38:35 60° E 16:44:53 10° NNE
SEDSat Delta rocket 4.2 16:41:24 52° NE 16:41:24 52° NE 16:46:25 10° E
IDEFIX/ARIANE 42P 3.6 16:37:17 10° NE 16:42:10 43° ESE 16:44:03 31° SSE
CZ-3B DEB 4.3 16:39:12 10° N 16:44:06 21° NE 16:47:35 10° E
SL-08 ROCKET BODY 4.5 16:45:07 66° N 16:45:07 66° N 16:50:15 10° N
PAYLOAD A 4.1 16:51:48 10° NNE 16:57:00 78° ESE 16:57:52 62° S
Cosmos 1238 Rocket 4.1 17:07:41 45° S 17:07:41 45° S 17:11:58 10° S
CSL-04 Rocket 4.0 17:01:22 10° NNE 17:06:51 67° ESE 17:10:55 19° S
Cosmos 2327 Rocket 4.3 17:06:50 30° S 17:10:06 81° W 17:16:13 10° N
OAO 3 Rocket 3.1 17:15:08 74° WNW 17:15:32 82° NNW 17:20:34 10° ENE
MSX 4.2 17:11:06 10° NNE 17:16:47 62° ESE 17:22:31 10° S
USA 215 3.4 17:15:42 10° NE 17:22:12 71° SE 17:25:57 28° SW
Cosmos 2058 Rocket 3.6 17:20:55 15° S 17:24:29 58° E 17:28:48 10° NNE
DELTA 2 R/B (1) 3.6 17:23:23 49° SW 17:24:50 71° SSE 17:30:24 10° E
NOSS 3-1 (C) 3.7 17:24:46 40° WNW 17:24:52 40° WNW 17:30:05 10° N
Cosmos 1726 Rocket 3.5 17:23:09 34° S 17:25:05 85° E 17:29:28 10° N
CSL-04 Debris 4.1 17:20:44 10° NNE 17:26:09 88° E 17:30:59 14° SSW
Cosmos 2360 Rocket 3.7 17:21:01 10° S 17:26:10 34° ESE 17:31:17 10° NE
Cosmos 1980 Rocket 3.5 17:28:48 24° NW 17:28:48 24° NW 17:31:52 10° NNW
Cosmos 2154 Rocket 4.1 17:21:34 10° S 17:27:56 80° E 17:34:16 10° N
Cosmos 1606 Rocket 3.4 17:27:09 55° SSW 17:27:59 72° W 17:32:20 10° N
Cosmos 494 Rocket 3.8 17:22:53 10° NNW 17:28:04 79° WSW 17:33:18 10° SSE
SL-16 R/B 2.1 17:26:26 28° SSW 17:29:34 85° WNW 17:35:15 10° NNE
Atlas Centaur 2 3.5 17:25:04 21° NW 17:29:49 51° NNE 17:37:49 10° E
Cosmos 1331 Rocket 4.2 17:27:51 17° S 17:32:04 70° ESE 17:37:19 10° NNE
Cosmos 1892 Rocket 3.5 17:28:17 10° NNW 17:32:44 63° W 17:37:16 10° S
Chunghua 1 4.4 17:37:41 63° W 17:38:15 89° SE 17:42:06 10° E
Ariane Rocket 3.0 17:34:31 10° N 17:39:30 57° W 17:42:28 24° SSW
Tiangong 1 2.5 17:40:49 24° N 17:41:51 32° NE 17:44:30 10° E
Meteor 1-4 Rocket 2.5 17:40:33 36° SSW 17:42:01 75° W 17:45:43 10° N
Nadezhda 1 Rocket 4.2 17:38:19 10° NNW 17:44:05 43° W 17:50:01 10° S
Meteor 1-28 Rocket 4.4 17:40:47 10° SSE 17:44:24 43° E 17:47:59 10° N
Cosmos 2074 Rocket 4.5 17:42:22 27° SW 17:44:46 36° W 17:50:21 10° NNW
IRS-1A Rocket 4.1 17:48:22 10° N 17:53:51 76° WNW 17:59:27 10° SSW
CZ-4 R/B 1.3 17:55:02 10° N 17:58:52 62° W 18:02:22 13° SSW
Cosmos 2322 Rocket 2.5 17:55:29 21° SW 17:59:00 45° WNW 18:04:20 10° N
Cosmos 962 Rocket 4.5 17:52:48 10° S 17:59:15 79° W 18:05:36 10° N
Abrixas rocket 4.5 18:02:42 13° SSW 18:02:42 13° SSW 18:04:09 10° SSE
Cosmos 1842 4.4 18:00:35 10° NNE 18:04:20 47° E 18:08:08 10° SSE
Cosmos 1110 Rocket 4.3 18:00:19 15° SSW 18:04:34 49° WNW 18:09:41 10° N
Cosmos 1302 Rocket 4.1 18:00:03 10° SSW 18:05:18 80° ESE 18:10:31 10° NNE
SL-8 Rocket 4.2 18:01:38 10° S 18:07:52 73° E 18:14:03 10° NNE
SKYMED 2 3.8 18:03:33 10° SSE 18:07:58 74° E 18:12:20 10° N
ATLAS 3B CENTAUR R/B 2.8 18:03:48 10° WNW 18:09:52 33° N 18:12:47 10° ENE
ATLAS 2AS CENTAUR R/B 3.1 18:04:10 10° SSW 18:10:19 57° ESE 18:16:57 10° NE
Cosmos 2218 Rocket 4.5 18:04:56 10° S 18:11:11 64° E 18:17:17 10° NNE
CORIOLIS 4.2 18:06:05 10° N 18:11:26 62° WNW 18:16:49 10° SSW
EO 1 Del DPAF 4.2 18:08:27 10° SSW 18:11:43 26° WSW 18:14:57 10° NW
Meteosat 1 Rocket2 4.4 18:06:36 12° WNW 18:11:50 40° N 18:15:56 10° ENE
CZ-2C R/B 3.5 18:09:26 10° NNW 18:13:49 27° W 18:17:42 12° SW
Cosmos 1626 Rocket 3.6 18:11:59 10° NNW 18:16:22 59° W 18:20:45 10° S
Meteor 1-21 4.3 18:12:35 10° N 18:18:12 86° E 18:23:52 10° S
Cosmos 2228 3.6 18:14:12 10° SSW 18:18:17 36° W 18:22:16 10° NNW
Lacrosse 4 Rocket 4.5 18:15:32 10° NNE 18:18:47 21° ENE 18:22:00 10° ESE
NOSS 3-3 (A) 4.5 18:11:40 10° NW 18:19:44 73° WSW 18:27:21 10° SSE
NOSS 3-3 (C) 4.5 18:11:47 10° NW 18:19:52 74° WSW 18:27:30 10° SSE
MONITOR-E 4.1 18:18:16 10° N 18:21:24 77° W 18:24:36 10° SSW
IDEFIX/ARIANE 42P 3.9 18:18:15 10° NW 18:21:55 19° W 18:24:52 13° SW
SMAP 3.8 18:19:35 10° NNW 18:23:49 34° W 18:28:06 10° SSW
Cosmos 2322 3.7 18:20:09 10° SSW 18:25:56 88° WNW 18:31:39 10° NNE
SEDSat Delta rocket 4.2 18:21:32 11° W 18:26:51 57° N 18:33:07 10° ENE
NOSS 2-3 (E) 4.1 18:21:22 10° SSW 18:27:31 78° WNW 18:32:30 10° NNE
Cosmos 1812 Rocket 3.6 18:23:28 10° S 18:28:00 88° ESE 18:32:31 10° N
Thor Agena Rocket 3.7 18:23:02 10° SSE 18:28:25 89° WSW 18:33:44 10° NNW
Cosmos 2219 3.3 18:23:11 10° NNW 18:28:57 86° ENE 18:34:46 10° SSE
Cosmos 2251 Rocket 4.5 18:24:57 10° WNW 18:29:13 25° WSW 18:33:34 10° S
Cosmos 2366 rocket 4.2 18:25:14 10° S 18:31:38 83° E 18:37:54 10° N
Cosmos 1825 Rocket 4.2 18:29:03 10° N 18:33:25 61° E 18:37:50 10° SSE
Cosmos 1271 Rocket 2.9 18:29:58 10° SSW 18:33:40 48° W 18:37:21 10° N
CZ-3B DEB 1.7 18:31:18 10° WNW 18:36:37 46° SW 18:39:51 10° SSE
Meteor 1-22 Rocket 4.3 18:32:28 10° SSW 18:37:54 53° W 18:43:05 10° N
Cosmos 1900 4.4 18:34:27 10° NW 18:39:28 63° WSW 18:44:27 10° SSE
Cosmos 1484 Rocket 4.0 18:39:35 10° NNW 18:42:48 24° W 18:46:05 10° SW
CZ-3 R/B 3.1 18:42:29 10° NW 18:46:15 16° N 18:48:29 10° NE
BREEZE-M DEB (TANK) 3.9 18:45:14 10° W 18:46:49 17° NW 18:48:46 10° N
CZ-3 Stage 3 4.5 18:45:43 10° W 18:54:48 24° NW 18:58:11 10° N
